loading
|

STARLINK-32203, 60331

Orbit data source: Space-Track

STARLINK-32203, 60331 is a payload satellite owned by SpaceX/Seattle (US) in LEO that was launched on Fri, 02 Aug 2024 UTC via an FALCON 9 launch vehicle from the Air Force Eastern Test Range (AFETR). Payloads include a variety of satellites, spacecraft, and rockets equipped with specific instruments for various scientific and technological missions. These include communications satellites like Starlink; space stations such as the ISS; scientific satellites like the Hubble; Earth observation satellites from companies like Planet Labs, Umbra, and HawkEye 360; GPS; miniature CubeSats for education and research; and military/defense satellites.

Loading next visibility...
Loading greatness...
STARLINK-32203 details
Identifier
60331, 2024-136C
Orbit
LEO
Last TLE update8 hours ago
Origin
Flag of USSpaceX/Seattle (US)
ManufacturerSpaceX/Seattle
Mission statusOperational
MissionUnknown
Bus & MotorSTARLINK V2M, Unknown motor
Mass750 kg wet, ~700 kg dry
Launch date (UTC)
2024-08-02 (2 months ago)
Launch vehicle
FALCON 9
Launch site
Air Force Eastern Test Range (AFETR)
Object type
Payload
Rocket body
Debris
Radar Cross SectionLarge (>1 m²)

Expand to show TLE details & history

TLE from 8 hours ago
0 STARLINK-32203
1 60331U 24136C   24261.61347189  .00002357  00000-0  68890-4 0  9995
2 60331  53.1627  55.6165 0001505  47.7471 312.3661 15.39621249  7278
Epoch: 2024-09-17T14:43Z
Definitive object data (Epoch: 2024-09-17T14:43:23.971Z)
Latitude-0.00004°
Longitude-162.25902°
Altitude447.44 km
Speed7.645 km/s
True Right ascension03h 42m 27s
True Declination0° 00' 00"
Sunlit
Object was in full shadow at TLE epoch
Predictive object data (real-time)
Latitude-39.32166°
Longitude158.65057°
Altitude460.303 km
Speed7.636 km/s
Apparent Right ascension02h 03m 42s
Apparent Declination-40° 24' 09"
Sunlit
Object is in full shadow
Predictive observer data (real-time)
Local Sidereal Time15:06:07
Azimuth97.37° ESE
Elevation-78.082°
Doppler factor1
Orbital elements
Apogee448.513 km
Perigee446.458 km
Semi-major axis6,825.622 km
Eccentricity0.0001505
Inclination53.1627°
RAAN55.6165°
Arg. of periapsis47.7471°
True anomaly312.35336°
Mean anomaly312.3661°
Eccentric anomaly312.35973°
Mean motion3.84884 °/min
BSTAR0.00006889
Period93.53 mins
No data available

STARLINK-32203 Visibility forecast

Observer location: 39.9160978°, -105.1181434

STARLINK-32203 is not visible in the next 10 days
Span
Click to sort rows by Start time (UTC) header in descending order
Start Az.
Max El. time (UTC)
Max El. Az.
Max El.
End time (UTC)
End Az.